"Pseudo-MPEC" for A10VLpO

Created 2023 Jul 1 22:20:23 UT using Find_Orb

Click here for an explanation of pseudo-MPECs

 
 Astrometry: 
     A10VLpO* C2023 06 28@#Zw'pAstrometryv5d!*\X6dHXq1.c/ABGC/#7P]od4PZ1eE2p[T05
     A10VLpO  C2023 06 28D`mXgA[QbXR,gUw=lF''vblbaX2vredacted;rvIO/hpP#Gl[yR#T05
     A10VLpO  C2023 06 28.P@!v\MN5%`GUbsR2aTsk1@]mtclick6J(fj]Fsid!XCaYyJSQ6UT05
     A10VLpO  C2023 06 28lD(]hereUItw0LYPqqG=jj\lI%-($15/!E!EM8UP3WMw^-NU$uLHT05
     A10VLpO  C2023 06 28?.nh4Klg:i_W4gJC=]!E4for_,bnd7@fW)explanation[yq7$c$T05
     A10VLpO  C2023 06 29.42303 00 39 39.838+13 28 54.16Duplicate12.1 GVNEOCPU52
     A10VLpO KC2023 06 29.42303 00 39 39.900+13 28 55.16Duplicate12.0 GVNEOCPU52
     A10VLpO  C2023 06 29.42311 00 39 41.585+13 29 03.37   ~6U2E 11.9 GVNEOCPU52

Station data:
(T05) ATLAS-HKO, Haleakala  (N20.707582 W156.257008)  US/Hawaii.  Observers
   L. Denneau, A. Heinze, H. Weiland, J. Tonry, H. Flewelling, A.
   Fitzsimmons, D. Young, B. Stalder. Measurers L. Denneau, A. Heinze, J.
   Tonry. 0.5-m f/2.0 Schmidt + CCD.
(U52) Shasta Valley Observatory, Grenada  (N41.579164 W122.548890)
   US/California.  Observer J. E. Rogers. Measurers J. E. Rogers, D. Parrott.
   0.30-m Helin Telescope + CCD.

Orbital elements:  A10VLpO
   Perigee 2023 Jun 29.0252886 +/- 0.000735 TT =  0:36:24.93 (JD 2460124.5252886)
Epoch 2023 Jun 29.0 TT = JDT 2460124.5                           Find_Orb
M 348.5764219736 +/- 0.33           (J2000 equator)
n 451.7281679597 +/- 0.0233         Peri.  223.7485656 +/- 0.07
a 36309.370927 +/- 1.25             Node   324.7893283 +/- 0.014
e   0.812524494 +/- 0.000112        Incl.   24.2474846 +/- 0.007
P1147.57m/0.797d           H 25.49  G  0.15   U 10.2
q 6807.1176608 +/- 4.15    Q 65811.624193 +/- 6.93
From 8 observations 2023 June 28-29 (20.1 hr); mean residual 1".578
Residuals in arcseconds: 
230628 T05 .400+ .191+    230628 T05 .824- .880-    230629 U52 .634+ 1.73+    
230628 T05 .923- .703-    230628 T05 .693+ .249-    230629 U52 5.55+ 1.15+    
230628 T05 .369+ .080+    230629 U52 .271- .732+    

Ephemerides (geocentric):
Date (UTC) HH   RA             Dec           delta elong  mag " sig PA
---- --------  ------------   ------------  ------ -----  --- --------
2023 06 29 00  06 00 31.931   +20 10 29.03   14570   7.4 26?? 4055 103
2023 06 29 01  18 28 47.221   -18 21 38.20   11665 175.1 Sha  7252  74
2023 06 29 02  21 20 26.038   -02 03 01.88   26434 133.5  8.5 1485  67
2023 06 29 03  22 13 08.025   +03 51 36.77   37297 119.2  9.7  782  67
2023 06 29 04  22 44 10.838   +07 14 16.45   45612 110.9 10.4  545  68
2023 06 29 05  23 06 44.822   +09 35 05.99   52092 104.9 10.9  433  69
2023 06 29 06  23 25 00.930   +11 23 49.13   57107 100.1 11.2  372  69
2023 06 29 07  23 40 50.529   +12 53 32.96   60874  96.0 11.5  337  70
2023 06 29 08  23 55 14.096   +14 11 10.95   63526  92.3 11.7  318  70
2023 06 29 09  00 08 50.049   +15 20 48.48   65144  88.9 11.9  311  71
2023 06 29 10  00 22 06.702   +16 25 06.11   65773  85.6 12.1  313  72
2023 06 29 11  00 35 28.454   +17 25 58.51   65430  82.3 12.2  325  72
2023 06 29 12  00 49 20.055   +18 24 54.92   64106  78.9 12.4  348  73
2023 06 29 13  01 04 10.908   +19 23 10.82   61764  75.3 12.5  386  74
2023 06 29 14  01 20 41.336   +20 21 54.37   58336  71.3 12.6  447  76
2023 06 29 15  01 39 54.430   +21 22 06.27   53706  66.8 12.7  545  77
2023 06 29 16  02 03 43.332   +22 24 20.05   47687  61.2 12.8  715  80
2023 06 29 17  02 36 08.463   +23 26 50.06   39965  53.8 13?? 1056  83
2023 06 29 18  03 28 12.231   +24 13 21.25   29960  42.0 13?? 1946  88
2023 06 29 19  05 31 14.640   +21 39 20.54   16476  14.2 19?? 6589 101
2023 06 29 20  17 26 22.304   -21 50 53.49    9736 164.6 Sha  361'  79
2023 06 29 21  21 11 10.591   -03 01 10.87   24915 136.7  8.3 3294  66
2023 06 29 22  22 08 45.646   +03 26 23.07   36158 121.1  9.6 1593  66
2023 06 29 23  22 41 22.453   +07 00 03.55   44728 112.3 10.3 1061  67
2023 06 30 00  23 04 40.368   +09 25 59.08   51402 106.1 10.8  818  68
2023 06 30 01  23 23 20.808   +11 17 28.62   56577 101.2 11.2  687  69
2023 06 30 02  23 39 24.989   +12 48 50.82   60484  97.1 11.5  610  70
2023 06 30 03  23 53 57.407   +14 07 28.85   63263  93.4 11.7  567  70
2023 06 30 04  00 07 38.319   +15 17 42.24   65000  89.9 11.9  545  71
2023 06 30 05  00 20 56.872   +16 22 18.85   65745  86.6 12.1  540  72